STARLINK-32909, 62894

Orbit data source: Space-Track

STARLINK-32909, 62894 is a payload satellite owned by SpaceX/Seattle (US) in LEO that was launched on Tue, 04 Feb 2025 UTC via an FALCON 9 launch vehicle from the Air Force Eastern Test Range (AFETR). Payload-class satellites include a variety of spacecraft equipped with specific instruments for various scientific and technological missions. These include communications satellites like Starlink; space stations such as the ISS; scientific satellites like the Hubble; Earth observation satellites from companies like Planet Labs, Umbra, and HawkEye 360; GPS; miniature CubeSats for education and research; and military/defense satellites.

Loading next visibility...
Identifier
62894, 2025-024R
Orbit
LEO
Country
Flag of USUS
Related business
Manufacturer
SpaceX/Seattle
Mission
Operational Commercial Communications
Bus & Motor
STARLINK V2M, Unknown motor
Mass
730 kg wet, ~700 kg dry
Launch date (UTC)
2025-02-04 (1 year ago)
Launch vehicle
FALCON 9
Launch site
Air Force Eastern Test Range (AFETR)
Object type
Payload
Rocket body
Debris
Shape & HBR
Box + 2 Pan, 17.7 m
Radar Cross Section
33.884 m², Large (>1 m²)

Expand to show TLE details & history
Last TLE update: 7 hours ago

TLE from 7 hours ago
0 STARLINK-32909
1 62894U 25024R   26125.38480269  .00021148  00000-0  77541-3 0  9991
2 62894  43.0038   5.4457 0000927 285.5576  74.5173 15.27598272 70934
Epoch: 2026-05-05T09:14Z
TLE epoch observation values (Epoch: 2026-05-05T09:14:06.952Z)
Latitude
-0.00004°
Longitude
3.65628°
Altitude
482.601 km
Speed
7.626 km/s
True Right ascension
00h 21m 46s
True Declination
0° 00' 00"
Sunlit
Object was in daylight at epoch
Visualization orbit readout
Latitude
Unknown
Longitude
Unknown
Altitude
Unknown
Speed
Unknown
Apparent Right ascension
Unknown
Apparent Declination
Unknown
Sunlit
N/A
Visualization observer readout
Local Sidereal Time
00:27:39
Azimuth
Unknown
Elevation
Unknown
Doppler factor
Unknown
Orbital elements
Apogee altitude
485.575 km
Perigee altitude
484.303 km
Semi-major axis
6,863.076 km
Eccentricity
0.00009
Inclination
43.0038°
RAAN
5.4457°
Arg. of periapsis
285.5576°
True anomaly
74.52754°
Mean anomaly
74.5173°
Eccentric anomaly
74.52242°
Mean motion
3.81738 °/min
Orbital period
94.31 mins
BSTAR
0.00077541
Loading maneuver chart data...
Computing Atmospheric mass density...
Loading historical data...
Loading historical data...
Loading historical data...
Loading historical data...
Loading historical data...
Loading historical data...
Loading historical data...

Documentation

Showing up to 5 results
|